Regional Weather Roundup
Issued by NWS Wakefield, VA

Home | Current Version | Previous Version | Graphics & Text | Print | Product List | Glossary On
Versions: 1 2 3 4 5 6 7 8 9 10 11 12 13 14 15 16 17 18 19 20 21 22 23 24 25 26 27
000
ASUS41 KAKQ 252015
RWRAKQ

REGIONAL WEATHER ROUNDUP
NATIONAL WEATHER SERVICE WAKEFIELD VA
400 PM EDT THU MAY 25 2017

Note: "fair" indicates few or no clouds below 12,000 feet with no
significant weather and/or obstructions to visibility. * = Denotes
station may not report precipitation (e.g., rain,snow,etc.),
thunder or fog.

VAZ042-051-052>054-056-252100-
NORTHERN VIRGINIA

CITY           SKY/WX    TMP DP  RH WIND       PRES   REMARKS
WASH NATIONAL  MOSUNNY   75  61  61 S8        29.44F THUNDER
DULLES         CLOUDY    71  57  61 VRB7      29.45F
FORT BELVOIR   SUNNY     74  58  57 S3        29.44F
QUANTICO       PTSUNNY   72  61  68 SE3       29.43F THUNDER
FREDERICKSBRG* PTSUNNY   72  63  73 CALM      29.44S
STAFFORD*      MOSUNNY   70  63  77 CALM      29.48F
WARRENTON      CLOUDY    71  59  66 SW8       29.46R
CULPEPER*      TSTM      61  55  79 NW8G22    29.45F
MANASSAS*      MOSUNNY   72  60  66 S5        29.44F
LEESBURG*      CLOUDY    72  61  68 SE3       29.45F THUNDER
WINCHESTER     TSTM      59  55  88 NW15      29.46S
FRONT ROYAL*   MOCLDY    63  57  82 CALM      29.44F
LURAY*         CLOUDY    72  61  68 E8        29.43F
$$

VAZ048-049-060>072-079>083-252100-
CENTRAL AND SOUTH CENTRAL VIRGINIA

CITY           SKY/WX    TMP DP  RH WIND       PRES   REMARKS
RICHMOND       TSTM      62  55  77 W15G33    29.48R
CHESTERFIELD*  NOT AVBL
PETERSBURG*    CLOUDY    66  52  60 W13G23    29.50R
HANOVER        TSTM      67  53  61 W15G31    29.49R
TAPPAHANNOCK*  PTSUNNY   77  55  45 SE12      29.44F
QUINTON*       MOCLDY    76  58  53 S8        29.44F
CHARLOTTSVILLE LGT RAIN  67  63  87 CALM      29.46R
GORDONSVILLE*  CLOUDY    72  61  69 SW3       29.45S
ORANGE*        MOSUNNY   63  57  82 CALM      29.45F
LOUISA*        CLOUDY    70  66  88 CALM      29.46R
BUMPASS*       CLOUDY    60  59  97 S6        29.48R
FARMVILLE*     CLOUDY    72  56  57 SW10G16   29.47S
CREWE*         MOCLDY    63  58  86 S5        29.50F
FORT PICKETT*  CLOUDY    60  56  88 W5        29.51S
CHASE CITY*    FAIR      69  61  76 SW3       29.51S
CLARKSVILLE*   MOCLDY    68  61  77 SW10      29.52S
SOUTH HILL*    CLOUDY    64  59  85 SW8       29.58F
LAWRENCEVILLE* MOCLDY    64  54  70 W12       29.52R
EMPORIA*       TSTM      66  50  55 SW21G33   29.54R
$$

VAZ088>098-252100-
SOUTHEAST VIRGINIA

CITY           SKY/WX    TMP DP  RH WIND       PRES   REMARKS
NORFOLK        PTSUNNY   79  56  45 SW16G23   29.47F
VIRGINIA BEACH TSTM      70  61  73 SW9       29.48F
NORFOLK NAVAL  MOSUNNY   81  53  37 SW18G29   29.48F
WEST POINT*    PTSUNNY   75  55  48 S7        29.46F
SALUDA*        FAIR      76  58  52 SW8       29.44F
NEWPORT NEWS   PTSUNNY   76  57  51 SW14G25   29.46F
LANGLEY AFB    MOSUNNY   79  57  47 W15G24    29.45F
FORT EUSTIS    MOSUNNY   77  57  50 S12G17    29.44F
WILLIAMSBURG*  MOSUNNY   79  59  50 S8        29.47F
HR EXEC AP*    FAIR      81  55  41 SW14G28   29.45F
FRANKLIN*      MOSUNNY   77  54  43 SW14G24   29.48F
US460-WAKEFLD  MOSUNNY   74  55  51 SW9G21    29.47F
$$

VAZ020-022-025-037-045-252100-
WEST CENTRAL AND SOUTHWEST VIRGINIA

CITY           SKY/WX    TMP DP  RH WIND       PRES   REMARKS
STAUNTON*      MOSUNNY   71  52  51 SW20      29.47S
WAYNESBORO*    MOCLDY    71  52  51 SW14G21   29.47F
HOT SPRINGS VA CLOUDY    52  48  87 W18G26    29.58S
LYNCHBURG      MOSUNNY   71  52  50 VRB7G24   29.51S
DANVILLE       TSTM      63  56  78 N16       29.55R
SOUTH BOSTON*  MOCLDY    65  56  74 SW7G16    29.52R
MARTINSVILLE   CLOUDY    67  50  53 W8        29.59R
ROANOKE        CLOUDY    64  50  60 W12       29.57R
BLACKSBURG     CLOUDY    59  49  69 W8        29.62S
DUBLIN*        CLOUDY    59  47  64 SW17      29.62R
MARION*        RAIN      53  50  90 W16       29.65S
HILLSVILLE*    LGT RAIN  56  44  65 W12G22    29.62R
RICHLANDS*     RAIN      51  23  33 SW12G21   29.62F
WISE*          LGT RAIN  54  54 100 SW16G22   29.63S
ABINGDON*      LGT RAIN  55  55  97 W17G24    29.65S
$$

MDZ021>025-VAZ099-100-252100-
SOUTHERN MARYLAND AND THE DELMARVA PENINSULA

CITY           SKY/WX    TMP DP  RH WIND       PRES   REMARKS
PATUXENT RIVER MOSUNNY   75  67  76 SE12      29.44F
BAY BRIDGE APT SUNNY     73  63  68 NW5       29.47F
LEONARDTOWN    PTSUNNY   73  59  60 S5        29.46F
DOVER          PTSUNNY   78  74  90 W10       29.44F
GEORGETOWN     CLOUDY    80  58  46 SW13      29.47F
EASTON         MOSUNNY   77  63  61 SW6       29.50F
CAMBRIDGE      MOSUNNY   77  59  53 VRB6      29.46F
SALISBURY      CLOUDY    77  62  59 SW8       29.45F
OCEAN CITY     CLOUDY    66  63  90 S8        29.48F
WALLOPS ISLAND CLOUDY    71  65  81 S8        29.47F
ACCOMACK*      CLOUDY    76  58  54 SW6       29.47F
$$

NCZ012>017-030>032-252100-
NORTH CENTRAL AND EASTERN NORTH CAROLINA

CITY           SKY/WX    TMP DP  RH WIND       PRES   REMARKS
ROANOKE RAPIDS FAIR      72  57  60 SW15      29.52R
RALEIGH        PTSUNNY   74  56  53 SW13G26   29.56S
ELIZABETH CITY MOSUNNY   79  57  46 SW22G29   29.51S
AHOSKIE*         N/A     75  59  57 S3        29.50S
EDENTON*       MOSUNNY   81  58  46 W12G18    29.52S
CURRITUCK*     MOSUNNY   80  59  49 SW12G25   29.51R
KILL DEVIL HLS MOSUNNY   80  56  43 SW5       29.51R
MANTEO         PTSUNNY   79  60  53 SW26G32   29.53R
CAPE HATTERAS  NOT AVBL
TARBORO*       NOT AVBL
GOLDSBORO      MOSUNNY   78  52  39 SW24G30   29.54S
WASHINGTON     PTSUNNY   76  55  48 SW14G23   29.55R
GREENVILLE     PTSUNNY   75  57  53 SW14      29.58R
NEW BERN       MOSUNNY   71  59  65 S16G24    29.59S
WILMINGTON     PTSUNNY   67  55  65 SW20G29   29.66R
$$

VAZ048-252100-
ELSEWHERE

CITY           SKY/WX    TMP DP  RH WIND       PRES   REMARKS
HARRISBURG PA  CLOUDY    64  60  87 CALM      29.48F
BALTIMORE      PTSUNNY   71  60  68 CALM      29.45F
ANNAPOLIS      PTSUNNY   72  63  73 E9        29.46F
ANDREWS AFB    PTSUNNY   72  59  62 SE8       29.43F
PHILADELPHIA   CLOUDY    66  62  87 NE8       29.49F
HENDERSON NC   SUNNY     69  55  60 SW18      29.54S
GREENSBORO     PTSUNNY   65  56  72 SW14G26   29.58R THUNDER
ROCKY MOUNT    MOSUNNY   75  56  51 SW20G28   29.55R
$$

VAZ100-252100-
MARINE

STATION/POSITION TIME  TEMP    WIND        PRES    WAVE   SWELL
                       AIR SEA DIR/SP/G            HT/PER HT/PER
                 (UTC) (F)     (DEG/KT/KT) (MB)    (FT/S) (FT/S)
CAPE MAY NJ      1948   68 62  170/ 10/ 17  998.0F
LEWES DE         1942   75 61  170/  6/ 11  997.7F
15NM E FENWICK I 1950   61 57  160/ 12/ 14  998.9F   4/ 7   3/ 7
WACHAPREAGUE VA  1948   73 71  170/  7/  8  997.6F
THOMAS POINT MD  2000   70 64  120/  3/  3   N/A
GOOSES REEF MD   2000   71 66  100/  8/  8  997.9    1/ 3
COVE POINT MD    1948   69     160/ 12/ 14  997.7F
SOLOMONS ISLAND  1948   75 67  160/  8/ 12   N/A
BISHOPS HEAD MD  1948   69 68  150/ 10/ 11  998.0F
PINEY POINT MD   1948          210/ 11/ 12   N/A
POTOMAC MD       2000   74 69  220/  6/  6  995.8    1
CAMBRIDGE MD     1942   80 67                N/A
LEWISETTA VA     1948   76 68  220/  8/ 10  996.8F
RAPPAHANNOCK LGT 1948          140/  7/  8  998.1F
STINGRAY PT      2000   72 68  150/  6/  8  997.6    1
YORK RVR RNG VA  1948   75     230/ 14/ 17  996.7F
YORKTOWN VA      1948   76 69  210/ 12/ 17  997.0F
JAMESTOWN VA     2000   74 72  240/ 12/ 19   N/A     0
DOMINION TERM VA 1948   75     270/ 12/ 15  997.8F
KIPTOPEKE VA     1948      67  130/  7/  9   N/A
CHES BAY BRIDGE  1948   69 68   50/  6/  7  997.7F
CAPE HENRY VA    1948   68     120/  6/  8   N/A
WILLOUBY STN VA  1948   75     230/ 14/ 15  997.6F
S CRANEY ISL VA  1948   78     210/ 13/ 17  997.6F
CAPE HENRY BUOY  1942      65                N/A     4/ 7
1ST LANDING BUOY 2000   70 67               998.3    1/ 4
CAPE CHARLES BUO 1951      63                N/A     3/ 7
64NM E OF VA BCH 1950   69 66  200/ 21/ 25 1000.2F   6/ 7   3/ 8
DUCK PIER NC     1948   77 63  240/ 18/ 25  998.9R
44100 DUCK FRF   1935      66                N/A     5/ 7   2/11
44056 DUCK FRF   1930      64                N/A     3/ 8
OREGON INLET NC  1936   75 72  190/ 27/ 33 1000.0R
HATTERAS NC      1948   76 74  220/ 18/ 26 1001.9R
DIAMOND SHLS NC  1950   76 78  220/ 25/ 31 1002.2R   9/ 9   5/ 9
CAPE LOOKOUT NC  2000   74     220/ 20/ 26 1002.2F
$$




USA.gov is the U.S. government's official web portal to all federal, state and local government web resources and services.